Flag for U.S.A. Weather past 2 weeks in Allentown, Pennsylvania, U.S.A.

Now
85 °F

Broken clouds.


Feels Like: 89 °F
Forecast: 71 / 88 °F
Wind: 7 mph from West

Location: Lehigh Valley International Airport

Current Time: Sep 2, 2014 at 1:11:31 PM

Latest Report: Sep 2, 2014 at 11:51 AM


Visibility: 10 mi

Pressure: 29.93 "Hg

Humidity: 59%

Dew point: 69 °F

Location of AllentownLocation

Historic Weather in Allentown — Graph

°F

Allentown temperature yesterday

Maximum temperature yesterday: 88 °F (at 2:51 PM)
Minimum temperature yesterday: 71 °F (at 5:51 AM)
Average temperature yesterday: 79 °F

Past Weeks' High & Low Weather Summary

 TemperatureHumidityPressure
High88 °F (Aug 27, 2:51 PM)97% (Aug 25, 6:51 AM)30.27 "Hg (Aug 25, 6:51 AM)
Low52 °F (Aug 29, 4:51 AM)39% (Aug 24, 1:51 PM)29.83 "Hg (Aug 18, 6:51 PM)
Average72 °F70%30.04 "Hg
* Reported Aug 18 11:51 AM — Sep 2 11:51 AM, Allentown, Weather by CustomWeather, © 2014

Note: Actual official high and low records may vary slightly from our data, if they occured in-between our weather recording intervals... More about our weather records

Advertising

Allentown weather history for previous 24 hours

 ConditionsComfort  
Time TempWeatherWind HumidityBarometerVisibility
11:51 AM
Sep 2
85 °FBroken clouds.7 mph59%29.93 "Hg10 mi
10:51 AM84 °FScattered clouds.9 mph61%29.95 "Hg10 mi
9:51 AM82 °FSunny.6 mph70%29.94 "Hg10 mi
8:51 AM78 °FSunny.5 mph79%29.94 "Hg10 mi
7:51 AM73 °FFog.No wind90%29.95 "Hg3 mi
6:51 AM69 °FFog.No wind96%29.93 "Hg3 mi
5:56 AM68 °FFog.No wind94%29.92 "Hg2 mi
4:51 AM70 °FFog.5 mph93%29.91 "Hg4 mi
3:55 AM70 °FFog.No wind94%29.93 "Hg1 mi
2:51 AM71 °FClear.No wind93%29.92 "Hg7 mi
1:51 AM73 °FClear.No wind90%29.93 "Hg10 mi
12:51 AM75 °FPassing clouds.No wind85%29.94 "Hg10 mi
11:51 PM
Sep 1
76 °FPassing clouds.No wind82%29.95 "Hg10 mi
10:51 PM75 °FClear.6 mph88%29.95 "Hg10 mi
9:51 PM78 °FPassing clouds.6 mph79%29.95 "Hg10 mi
8:51 PM81 °FClear.3 mph69%29.93 "Hg10 mi
7:51 PM81 °FPassing clouds.6 mph69%29.94 "Hg10 mi
6:51 PM85 °FSunny.9 mph59%29.92 "Hg10 mi
5:51 PM87 °FScattered clouds.9 mph55%29.92 "Hg10 mi
4:51 PM86 °FOvercast.8 mph57%29.93 "Hg10 mi
3:51 PM87 °FMostly cloudy.7 mph57%29.94 "Hg10 mi
2:51 PM88 °FBroken clouds.12 mph55%29.95 "Hg10 mi
1:51 PM86 °FPartly sunny.8 mph55%29.96 "Hg10 mi
Weather by CustomWeather, © 2014

See weather overviewHow to use our weather pages